Miami Beach, Florida, United States (33109)
Lat: 25.79N, Lon: 80.13W
Wx Zone: FLZ173
Local Info
Past Weather Observations for Tuesday, March 3, 2015

NOTE: This archive is for the closest National Weather Service station to Miami Beach. Information may differ from the station used for current weather conditions.

Click here for Long-term Archive

Time Weather Temperature Dewpoint Humidity Pressure Winds Precip Visibility
23:53
Partly Cloudy
75°F / 24°C 66°F / 19°C 74% 30.15 in
(1021 mb)
ESE 13.8 mph
(ESE 22 kph)
- 10SM
22:53
Partly Cloudy
75°F / 24°C 66°F / 19°C 74% 30.15 in
(1021 mb)
ESE 15 mph
(ESE 24 kph)
- 10SM
22:40
Partly Cloudy
75°F / 24°C 66°F / 19°C 74% 30.15 in
(1021 mb)
E 16.1 mph
(E 26 kph)
- 10SM
21:53
Mostly Cloudy
75°F / 24°C 66°F / 19°C 74% 30.15 in
(1021 mb)
E 12.7 mph
(E 20 kph)
- 10SM
20:53
Mostly Cloudy
75°F / 24°C 66°F / 19°C 74% 30.15 in
(1021 mb)
E 12.7 mph
(E 20 kph)
- 10SM
20:00
Mostly Cloudy
75°F / 24°C 66°F / 19°C 74% 30.15 in
(1021 mb)
E 16.1 mph
(E 26 kph)
- 10SM
19:53
Mostly Cloudy
75°F / 24°C 66°F / 19°C 74% 30.15 in
(1021 mb)
E 15 mph
(E 24 kph)
- 10SM
18:53
Mostly Cloudy
75°F / 24°C 66°F / 19°C 74% 30.12 in
(1020 mb)
E 15 mph
(E 24 kph)
- 10SM
17:53
Mostly Cloudy
77°F / 25°C 64°F / 18°C 65% 30.12 in
(1020 mb)
ESE 13.8 mph
(ESE 22 kph)
- 10SM
16:53
Partly Cloudy
79°F / 26°C 64°F / 18°C 61% 30.12 in
(1020 mb)
E 12.7 mph
(E 20 kph)
- 10SM
15:53
Mostly Cloudy
81°F / 27°C 64°F / 18°C 58% 30.12 in
(1020 mb)
ESE 13.8 mph
(ESE 22 kph)
- 10SM
14:53
Mostly Cloudy
82°F / 28°C 61°F / 16°C 48% 30.15 in
(1021 mb)
E 19.6 mph
(E 32 kph)
- 10SM
13:53
Mostly Cloudy
81°F / 27°C 64°F / 18°C 58% 30.15 in
(1021 mb)
E 17.3 mph
(E 28 kph)
- 10SM
12:53
Mostly Cloudy
81°F / 27°C 64°F / 18°C 58% 30.18 in
(1022 mb)
E 17.3 mph
(E 28 kph)
- 10SM
11:53
Mostly Cloudy
81°F / 27°C 64°F / 18°C 58% 30.21 in
(1023 mb)
ESE 13.8 mph
(ESE 22 kph)
- 10SM
10:53
Partly Cloudy
81°F / 27°C 63°F / 17°C 54% 30.21 in
(1023 mb)
E 17.3 mph
(E 28 kph)
- 10SM
09:53
Partly Cloudy
79°F / 26°C 64°F / 18°C 61% 30.21 in
(1023 mb)
E 16.1 mph
(E 26 kph)
- 10SM
09:02
Partly Cloudy
77°F / 25°C 64°F / 18°C 65% 30.21 in
(1023 mb)
ENE 12.7 mph
(ENE 20 kph)
- 10SM
08:53
Mostly Cloudy
77°F / 25°C 64°F / 18°C 65% 30.21 in
(1023 mb)
E 12.7 mph
(E 20 kph)
- 10SM
08:47
Mostly Cloudy
77°F / 25°C 64°F / 18°C 65% 30.21 in
(1023 mb)
E 15 mph
(E 24 kph)
- 10SM
07:53
Partly Cloudy
75°F / 24°C 64°F / 18°C 69% 30.21 in
(1023 mb)
E 9.2 mph
(E 15 kph)
- 10SM
07:44
Partly Cloudy
75°F / 24°C 64°F / 18°C 69% 30.21 in
(1023 mb)
E 11.5 mph
(E 19 kph)
- 10SM
07:27
Mostly Cloudy
73°F / 23°C 66°F / 19°C 78% 30.18 in
(1022 mb)
E 10.4 mph
(E 17 kph)
- 10SM
06:53
Partly Cloudy
73°F / 23°C 66°F / 19°C 78% 30.18 in
(1022 mb)
E 6.9 mph
(E 11 kph)
- 10SM
05:53
Partly Cloudy
72°F / 22°C 66°F / 19°C 83% 30.15 in
(1021 mb)
ESE 6.9 mph
(ESE 11 kph)
- 10SM
04:53
Partly Cloudy
72°F / 22°C 66°F / 19°C 83% 30.15 in
(1021 mb)
E 5.8 mph
(E 9 kph)
- 10SM
03:53
Partly Cloudy
72°F / 22°C 64°F / 18°C 78% 30.15 in
(1021 mb)
E 5.8 mph
(E 9 kph)
- 10SM
02:53
Partly Cloudy
72°F / 22°C 64°F / 18°C 78% 30.15 in
(1021 mb)
E 4.6 mph
(E 7 kph)
- 10SM
01:53
Partly Cloudy
72°F / 22°C 64°F / 18°C 78% 30.18 in
(1022 mb)
E 6.9 mph
(E 11 kph)
- 10SM
00:53
Partly Cloudy
72°F / 22°C 64°F / 18°C 78% 30.18 in
(1022 mb)
E 5.8 mph
(E 9 kph)
- 10SM
Time Weather Temperature Dewpoint Humidity Pressure Winds Precip Visibility


Weather for websites

WeatherForYou.com, LLC is not responsible for any damages or problems caused by this service. Current weather conditions are obtained from the closest station including government and personal stations which may have varying degrees of accuracy. Weather forecasts are derived from the NOAA NDFD. Like all things, this site belongs to Jesus Christ... He just trusts me to maintain it. If you have any questions or comments email webmaster@weatherforyou.com

Copyright © 2015, WeatherForYou.com LLC. All rights reserved.